HAIYANG 2A

Satellite information

Favourite Embed

Satellite Type and Status

PAYLOADIN ORBIT

Key statistics

Satellite HAIYANG 2A at a glance.

Uptime

5181

Days in orbit

Revolutions

≈ 13.8

Per day

Orbit

SSO

Sun Synchronous Orbit

Inclination

99.3

Latest

Satellite identification and parameters

Extended collection of information and parameters for HAIYANG 2A.

Object identification

Identified? True

Debris? False

Object name: HAIYANG 2A

International designator: 2011-043A

Object number (NORAD): 37781

Object ID (CCSDS): 37781

Country: PEOPLES REPUBLIC OF CHINA (PRC)

Current information (Y/N): Y

RCS size: LARGE

Orbital parameters

Period: 104.436 minutes

Inclination: 99.338 deg

SMA: 7346.178 km

Apoapsis: 968.555 km

Periapsis: 967.532 km

RAAN: 295.6947 deg

Eccentricy: 0.00006968

Argument of periapsis: 146.7078 deg

Mean anomaly: 213.4117 deg

Mean motion: 13.78829443 rev/day

Mean motion (dot): 0.00000022 rev/day2

B* drag term: 0.000064609866 1/REarth

Two-line elements (TLE)

Creation date: Oct. 21, 2025, 3:26 a.m.

Reference frame: TEME

Reference center: EARTH

Epoch: Oct. 20, 2025, 10:49 p.m. UTC

TLE line 0: 0 HAIYANG 2A

TLE line 1: 1 37781U 11043A 25293.95104603 .00000022 00000-0 64610-4 0 9999

TLE line 2: 2 37781 99.3380 295.6947 0000697 146.7078 213.4117 13.78829443713714

Live tracking on map

Real-time ground track for satellite HAIYANG 2A.

In-orbit conjunctions

There are no conjunctions computed for HAIYANG 2A, at the moment. Check back to stay up to date, as we update our databases every day.

Go to all conjunctions

Associated space launch

HAIYANG 2A was lifted into orbit during the mission ‘Long March 4B | Hai Yang 2A’, on board a Long March 4B space rocket.

The launch took place on Aug. 15, 2011, 10:57 p.m. from Launch Complex 7.

For more information about the launch, click the button.

Launch to space Long March 4B | Hai Yang 2A
Long March 4B | Hai Yang 2A

Agency: N/A

Status: Launch Successful

Launch date: Aug. 15, 2011, 10:57 p.m. UTC

Rocket: Long March 4B

Launch pad: Launch Complex 7

Location: Taiyuan Satellite Launch Center, People's Republic of China

...

Latest news about this satellite

There are no fresh news available about this satellite. Check back as we update our databases every day.


Newsletter sign-up

Weekly statistics, charts and insights to help you stay on top of the space industry.